Ardmore, OK

3:11 PM CDT on May 23, 2017 (GMT -0500)
Ardmore Municipal

Weather History for KADM - November, 2014

Change the Weather History Date:

Sunday, November 2, 2014

  Actual Average Record
Temperature  
Mean Temperature 52 °F -  
Max Temperature 65 °F 65 °F 87 °F (2012)
Min Temperature 41 °F 47 °F 32 °F (2006)
Degree Days  
Heating Degree Days 12    
Growing Degree Days 2 (Base 50)    
Moisture  
Dew Point 37 °F    
Average Humidity 64    
Maximum Humidity 76    
Minimum Humidity 51    
Precipitation  
Precipitation 0.00 in - - ()
Sea Level Pressure  
Sea Level Pressure 30.25 in    
Wind  
Wind Speed 7 mph (SE)    
Max Wind Speed 17 mph    
Max Gust Speed 22 mph    
Visibility 10 miles    
Events      
Averages and records for this station are not official NWS values.
T = Trace of Precipitation, MM = Missing Value Source: NWS Daily Summary

Daily Weather History Graph

Daily Weather History Graph

Search for Another Location

Airport or City:

Trip Planner

Search our weather history database for the weather conditions in past years. The results will help you decide how hot, cold, wet, or windy it might be!

Date:

Astronomy

Nov. 02, 2014 Rise Set
Actual Time 6:48 AM CST 5:33 PM CST
Civil Twilight 6:22 AM CST 5:59 PM CST
Nautical Twilight 5:53 AM CST 6:29 PM CST
Astronomical Twilight 5:23 AM CST 6:58 PM CST
Moon 2:55 PM CST (11/2) 2:05 AM CST (11/2)
Length of Visible Light 11h 36m
Length of Day
10h 44m
Waxing Gibbous, 79% of the Moon is Illuminated
Nov 2
Waxing Gibbous
Nov 6
Full
Nov 14
Last Quarter
Nov 22
New
Nov 29
First Quarter

Hourly Weather History & Observations

Time (CST) Temp. Windchill Dew Point Humidity Pressure Visibility Wind Dir Wind Speed Gust Speed Precip Events Conditions
12:15 AM 44.6 °F 40.7 °F 32.5 °F 63% 30.28 in 10.0 mi SE 6.9 mph - N/A   Clear
12:35 AM 44.8 °F 41.6 °F 32.5 °F 62% 30.28 in 10.0 mi SE 5.8 mph - N/A   Clear
12:55 AM 44.8 °F 41.0 °F 32.4 °F 62% 30.27 in 10.0 mi SE 6.9 mph - N/A   Clear
1:15 AM 44.6 °F 40.7 °F 32.4 °F 62% 30.27 in 10.0 mi SE 6.9 mph - N/A   Clear
1:35 AM 43.7 °F 41.1 °F 32.5 °F 65% 30.27 in 10.0 mi SE 4.6 mph - N/A   Clear
1:55 AM 44.1 °F 41.5 °F 32.2 °F 63% 30.27 in 10.0 mi ESE 4.6 mph - N/A   Clear
1:15 AM 42.8 °F 40.1 °F 32.5 °F 67% 30.27 in 10.0 mi ESE 4.6 mph - N/A   Clear
1:35 AM 43.0 °F 39.5 °F 32.9 °F 68% 30.27 in 10.0 mi SE 5.8 mph - N/A   Clear
1:55 AM 43.7 °F 41.1 °F 32.9 °F 66% 30.27 in 10.0 mi ESE 4.6 mph - N/A   Clear
2:15 AM 42.4 °F 38.8 °F 33.3 °F 70% 30.27 in 10.0 mi ESE 5.8 mph - N/A   Clear
2:35 AM 42.1 °F 38.4 °F 33.8 °F 72% 30.27 in 10.0 mi East 5.8 mph - N/A   Clear
2:55 AM 42.3 °F 39.4 °F 33.8 °F 72% 30.27 in 10.0 mi ESE 4.6 mph - N/A   Clear
3:15 AM 43.2 °F 39.7 °F 34.2 °F 71% 30.27 in 10.0 mi ESE 5.8 mph - N/A   Clear
3:35 AM 43.0 °F 38.8 °F 33.8 °F 70% 30.27 in 10.0 mi ESE 6.9 mph - N/A   Clear
3:55 AM 42.8 °F 38.0 °F 33.8 °F 70% 30.27 in 10.0 mi ESE 8.1 mph - N/A   Clear
4:15 AM 42.6 °F 38.4 °F 33.4 °F 70% 30.27 in 10.0 mi ESE 6.9 mph - N/A   Clear
4:35 AM 42.4 °F 38.1 °F 33.4 °F 70% 30.28 in 10.0 mi ESE 6.9 mph - N/A   Clear
4:55 AM 42.3 °F 37.3 °F 33.6 °F 71% 30.28 in 10.0 mi ESE 8.1 mph - N/A   Clear
5:15 AM 42.3 °F 36.8 °F 33.4 °F 71% 30.28 in 10.0 mi ESE 9.2 mph - N/A   Clear
5:35 AM 43.2 °F 38.4 °F 33.6 °F 69% 30.28 in 10.0 mi ESE 8.1 mph - N/A   Clear
6:55 AM 41.0 °F 36.4 °F 33.8 °F 76% 30.29 in 10.0 mi East 6.9 mph - N/A   Clear
7:55 AM 46.4 °F 41.9 °F 35.6 °F 66% 30.31 in 10.0 mi SE 9.2 mph - N/A   Clear
8:55 AM 50.0 °F - 35.6 °F 58% 30.31 in 10.0 mi SE 11.5 mph 19.6 mph N/A   Clear
9:55 AM 53.6 °F - 35.6 °F 51% 30.30 in 10.0 mi SSE 13.8 mph - N/A   Overcast
10:55 AM 55.4 °F - 37.4 °F 51% 30.29 in 10.0 mi SSE 17.3 mph - N/A   Overcast
11:55 AM 59.0 °F - 41.0 °F 51% 30.26 in 10.0 mi South 15.0 mph 21.9 mph N/A   Mostly Cloudy
12:55 PM 62.6 °F - 44.6 °F 52% 30.21 in 10.0 mi SSE 13.8 mph 20.7 mph N/A   Clear
1:55 PM 64.4 °F - 46.4 °F 52% 30.17 in 10.0 mi SSE 15.0 mph 21.9 mph N/A   Clear
2:55 PM 64.4 °F - 46.4 °F 52% 30.16 in 10.0 mi SSE 15.0 mph 20.7 mph N/A   Clear
3:55 PM 64.4 °F - 46.4 °F 52% 30.17 in 10.0 mi SSE 10.4 mph 19.6 mph N/A   Clear
4:55 PM 62.6 °F - 46.4 °F 55% 30.16 in 10.0 mi SSE 10.4 mph - N/A   Clear
9:15 PM 56.5 °F - 46.0 °F 68% 30.17 in 10.0 mi SE 8.1 mph - N/A   Clear
9:35 PM 56.7 °F - 45.7 °F 67% 30.18 in 10.0 mi SE 9.2 mph - N/A   Clear
9:55 PM 55.6 °F - 45.3 °F 68% 30.18 in 10.0 mi SE 5.8 mph - N/A   Clear
10:15 PM 54.5 °F - 44.8 °F 70% 30.18 in 10.0 mi SE 6.9 mph - N/A   Clear
10:35 PM 54.1 °F - 44.6 °F 70% 30.18 in 10.0 mi SE 5.8 mph - N/A   Clear
10:55 PM 53.4 °F - 43.9 °F 70% 30.17 in 10.0 mi SE 6.9 mph - N/A   Clear